Sultan Abdul Halim Airport
WMKA : now visible

Airfield :











YOU CAN JOIN US ON...

 
LOGIN :

Register | Disclaimer

   EN    FR    IT 

 









Legend :    VFR   Marginal VFR   IFR   Intensive IFR   Very Intensive IFR
Visi :
Ceiling :
>= 8 km
>= 3000ft
5 to 8 km
1000 to 3000 ft
1500m to 5 km
500 to 1000 ft
800 to 1500m
200 to 500 ft
< 800m
< 200 ft
Symbols :   Thunderstorms  Fog  Heavy snow  Heavy precipitations  Wind > 20 kt






- Airport Elevation : 15 ft
- IATA code : AOR


WMKA - Sultan Abdul Halim

CURRENT METAR :
  • 261400Z 00000KT 9999 FEW030 30/28 Q1008

EXPIRED METARs :
  • 261300Z VRB02KT 9999 FEW020 31/27 Q1007
  • 261200Z 27004KT 230V310 9999 FEW030 31/27 Q1007
  • 261100Z 25005KT 190V300 9999 FEW020 32/27 Q1006
  • 261000Z VRB06KT 9999 FEW020 33/28 Q1006

TAF TAF WMKA
Valid from the 26 at 12:00 until the 27 at 12:00 UTC


261100Z 2612/2712 VRB03KT 9999 FEW030
TEMPO 2708/2712 5000 TSRA FEW010 FEW017CB
WMFC FIR / Asia



MET'MAP, your aeronautical weather chart ! - Copyright ORBIFLY December 2007 - Disclaimer

ORBIFLY MET'MAP TEAM :

Programming & Development : Alexandra Zaïnal
Original concept : Baudouin d'Aumeries
Technical & hardware support : Manuel Goepfert
Assistance : Marc-Olivier Méhu




SOURCES & CREDITS :

   NOAA       Earth
Advisory